TimeAST,TemperatureF,Dew PointF,Humidity,Sea Level PressureIn,VisibilityMPH,Wind Direction,Wind SpeedMPH,Gust SpeedMPH,PrecipitationIn,Events,Conditions,WindDirDegrees,DateUTC
12:00 AM,80.6,75.2,84,29.92,6.2,East,8.1,-,N/A,Thunderstorm,Partly Cloudy,80,2013-09-10 04:00:00
1:00 AM,80.6,75.2,84,29.92,6.2,East,8.1,-,N/A,,Partly Cloudy,90,2013-09-10 05:00:00
2:00 AM,81,76,79,29.92,9,East,5.8,,,,Widespread Dust,100,2013-09-10 06:00:00
2:00 AM,80.6,75.2,84,29.92,6.2,East,5.8,-,N/A,,Partly Cloudy,100,2013-09-10 06:00:00
3:00 AM,80.6,75.2,84,29.89,6.2,NE,5.8,-,N/A,,Partly Cloudy,50,2013-09-10 07:00:00
4:00 AM,80.6,75.2,84,29.89,6.2,East,5.8,-,N/A,,Partly Cloudy,80,2013-09-10 08:00:00
5:00 AM,80,76,84,29.93,8,ENE,5.8,,,,Widespread Dust,60,2013-09-10 09:00:00
5:00 AM,80.6,75.2,84,29.92,6.2,ENE,5.8,-,N/A,,Partly Cloudy,60,2013-09-10 09:00:00
6:00 AM,80.6,75.2,84,29.92,6.2,East,4.6,-,N/A,,Partly Cloudy,80,2013-09-10 10:00:00
7:00 AM,82.4,77.0,84,29.95,6.2,East,8.1,-,N/A,,Partly Cloudy,90,2013-09-10 11:00:00
8:00 AM,86,78,70,29.97,11,East,13.8,,,,Partly Cloudy,90,2013-09-10 12:00:00
8:00 AM,86.0,77.0,74,29.98,6.2,East,13.8,-,N/A,,Partly Cloudy,90,2013-09-10 12:00:00
9:00 AM,82.4,78.8,89,29.98,6.2,ESE,10.4,-,N/A,,Scattered Clouds,110,2013-09-10 13:00:00
10:00 AM,86.0,78.8,79,29.98,6.2,SE,17.3,-,N/A,,Scattered Clouds,130,2013-09-10 14:00:00
11:00 AM,87,76,64,29.99,9,ESE,15.0,,,,Partly Cloudy,120,2013-09-10 15:00:00
11:00 AM,86.0,77.0,74,29.98,6.2,ESE,15.0,-,N/A,,Mostly Cloudy,120,2013-09-10 15:00:00
12:00 PM,87.8,75.2,66,29.98,6.2,SE,15.0,-,N/A,,Mostly Cloudy,130,2013-09-10 16:00:00
1:00 PM,87.8,78.8,75,29.95,6.2,SE,15.0,-,N/A,,Scattered Clouds,140,2013-09-10 17:00:00
2:00 PM,87,77,65,29.93,11,SE,13.8,,,,Widespread Dust,140,2013-09-10 18:00:00
2:00 PM,87.8,77.0,70,29.92,6.2,SE,13.8,-,N/A,,Mostly Cloudy,140,2013-09-10 18:00:00
3:00 PM,87.8,77.0,70,29.89,6.2,SE,13.8,-,N/A,,Scattered Clouds,140,2013-09-10 19:00:00
4:00 PM,87.8,77.0,70,29.89,6.2,ESE,12.7,-,N/A,,Scattered Clouds,120,2013-09-10 20:00:00
5:00 PM,86,78,72,29.89,10,ESE,11.5,,,,Partly Cloudy,120,2013-09-10 21:00:00
5:00 PM,86.0,78.8,79,29.89,6.2,ESE,11.5,-,N/A,,Scattered Clouds,120,2013-09-10 21:00:00
6:00 PM,86.0,77.0,74,29.89,6.2,East,11.5,-,N/A,,Mostly Cloudy,90,2013-09-10 22:00:00
7:00 PM,84.2,77.0,79,29.89,6.2,East,6.9,-,N/A,,Mostly Cloudy,80,2013-09-10 23:00:00
8:00 PM,83,77,77,29.93,11,East,5.8,,,,Widespread Dust,90,2013-09-11 00:00:00
8:00 PM,82.4,77.0,84,29.92,6.2,East,5.8,-,N/A,,Mostly Cloudy,90,2013-09-11 00:00:00
9:00 PM,82.4,78.8,89,29.95,6.2,East,5.8,-,N/A,,Mostly Cloudy,80,2013-09-11 01:00:00
10:00 PM,82.4,75.2,79,29.95,6.2,East,5.8,-,N/A,,Mostly Cloudy,90,2013-09-11 02:00:00
11:00 PM,82,76,78,,11,East,9.2,,,,,90,2013-09-11 03:00:00
11:00 PM,82.4,77.0,84,29.95,6.2,East,9.2,-,N/A,,Mostly Cloudy,90,2013-09-11 03:00:00